CAPE
3286 3267 3320 3336 3299 3003 2976 3162 3125 3045 3135 2520 2613 3167 3118 3553 3556 3102 3419 3697 4002 3740 3680 3815 3645 3456 3482 3456 3378 3085 2875 2806 2288 1904 1786 1530 1155 672 676 778 726 859
3283 3327 3258 3253 3360 3252 3150 3215 3360 3140 3256 3086 2577 2629 3218 3378 3892 3584 3696 4045 4206 4024 4019 4071 3975 3753 3752 3410 3426 3197 3036 2784 2565 1940 1811 1786 1445 900 602 837 814 823
3550 3446 3400 3266 3165 3308 2983 3183 3318 3382 3129 3188 3047 2829 3142 3725 4040 4155 3982 4100 4125 3974 4135 4102 4053 4055 3836 3596 3523 3318 3150 3222 2907 2091 2111 1939 1594 1046 688 698 813 829
3600 3527 3468 3308 3131 3200 3279 3130 3340 3488 3038 3081 3106 2980 3061 3414 3823 4282 4423 4103 4104 4116 4006 4157 3901 3610 3802 3539 3551 3349 3254 3402 3172 2720 2133 2015 1809 1366 816 550 715 853
3823 3766 3525 3523 3348 3246 3408 3373 3261 3331 3319 2944 3132 3231 3394 3538 4003 4237 4354 4552 4392 4213 3992 4089 4326 3800 3732 3568 3553 3483 3171 3225 3191 2802 2226 2238 2072 1728 1252 661 710 834
3863 3946 3872 3650 3523 3461 3304 3465 3320 3285 3420 3073 3220 3160 3244 3738 3848 3924 4150 4250 4288 3848 3590 3949 4164 3935 3720 3665 3524 3607 3325 3218 2877 2637 2681 2529 2306 2000 1620 1063 859 911
3899 3945 3876 3678 3642 3572 3540 3523 3547 3353 3297 3208 3280 3258 3320 3570 3862 3721 3745 4039 3827 3881 3512 3555 4192 4094 4067 4155 3849 3893 3655 3563 3180 2908 2798 2786 2496 2319 1934 1404 1238 1024
3772 3842 3896 3780 3658 3636 3594 3568 3648 3575 3503 3569 3305 3557 3649 3380 3887 3858 3816 3753 3737 3950 3968 3817 4248 4508 4150 4132 4171 3979 3820 3642 3566 3014 2930 2919 2618 2622 2376 1751 1672 1291
3830 3786 3872 3854 3722 3709 3539 3449 3638 3773 3673 3621 3507 3382 3700 3601 3704 3757 3980 4122 3962 3905 4260 4168 4293 4591 4303 4156 4123 4095 4027 3654 3540 3356 2814 2849 2838 2749 2680 2211 1922 1653
3818 3664 3698 3636 3579 3552 3534 3437 3344 3602 3690 3631 3627 3262 3569 3856 3680 3753 4017 4237 4208 4199 4267 4453 4420 4584 4523 4141 4175 4071 4059 4030 3759 3617 3351 3096 3092 3081 2900 2586 2188 1919
3708 3711 3593 3576 3447 3405 3398 3289 3239 3242 3478 3548 3527 3401 3127 3829 3873 3811 3970 4282 4270 4267 4345 4442 4458 4563 4535 4104 4080 4023 3986 3926 3851 3785 3695 3603 3382 3247 2964 2867 2543 2130
3729 3721 3621 3522 3302 3222 3188 3102 3072 3121 3139 3450 3476 3458 3267 3257 3862 3867 3818 4270 4386 4332 4377 4511 4566 4524 4552 4290 4003 3993 3955 3763 3851 3792 3641 3640 3496 3302 3230 2973 2760 2480
3624 3630 3554 3262 3340 3186 3031 3017 2981 2877 2926 3100 3361 3390 3286 3095 3125 3798 3792 3955 4302 4378 4306 4396 4585 4485 4562 4508 4167 3967 4002 3869 3554 3695 3626 3591 3539 3289 3140 3027 2834 2696
3682 3859 3555 3482 3328 3522 3355 3130 3042 3083 3174 3153 3211 3323 3219 3119 2871 3247 3759 3800 4162 4261 4247 4254 4404 4483 4552 4537 4375 3992 3893 3927 3543 3557 3503 3565 3487 3385 3126 2932 2844 2739
3924 3887 3752 3654 3402 3637 3606 3365 3365 3388 3243 3186 3256 3291 3228 3094 3026 2932 3496 3866 3867 4127 4242 4094 4050 4317 4432 4520 4118 3845 3938 3834 3736 3478 3457 3465 3473 3281 3121 2898 2759 2679
3959 3966 3948 3928 3653 3608 3778 3642 3374 3420 3311 3287 3246 3272 3364 3356 3251 3128 3113 3652 3901 4051 4083 4125 3996 4092 3966 3684 3598 3748 3770 3730 3695 3595 3439 3353 3389 3299 3034 2973 2748 2579
4117 4117 4092 4045 3880 3750 3844 3803 3572 3462 3491 3575 3556 3525 3590 3604 3479 3361 3134 3258 3732 3893 4060 4056 4057 3978 3430 3343 3154 2993 3265 3682 3721 3681 3582 3376 3286 3421 3230 2941 2792 2714
4190 4205 4102 4112 4090 3872 3846 3934 3740 3664 3628 3680 3661 3651 3715 3631 3591 3500 3503 3308 3403 3762 3865 3981 4080 3551 3163 3034 2846 2650 2728 3464 3663 3549 3496 3406 3196 3189 3232 3085 2891 2828
4213 4156 4331 4176 4116 4038 3891 4060 4055 3851 3775 3726 3636 3774 3829 3886 3746 3711 3702 3545 3397 3650 3825 3894 3984 3463 3028 2792 2621 2436 2289 2664 3299 3457 3382 3316 3212 3165 3155 3227 3234 3084
4362 4286 4319 4173 4196 4160 4031 4049 4062 4003 3800 3684 3723 3822 3815 3944 3794 3822 3831 3866 3700 3728 3853 3908 3992 3524 3095 2701 2475 2298 2176 2121 2922 3170 3305 3294 3272 3197 3109 3154 3246 3219
4293 4140 4091 4180 4150 4141 4092 4061 4048 4071 3883 3597 3516 3716 3939 4070 4008 3958 3918 3958 3847 3728 3803 3875 3999 3479 3248 2856 2493 2246 2076 1961 2642 2768 3050 3304 3330 3216 3163 3078 3209 3223
3940 3999 3832 3983 4005 4065 4023 3950 3961 4019 4092 3831 3595 3601 3740 3868 4050 3939 3906 3888 3940 3956 3754 3836 3934 3327 3180 2984 2664 2373 2135 1942 2403 2747 2897 3052 3323 3343 3127 3129 3134 3233
3684 3811 3772 3876 3928 3992 3985 3940 3968 4077 4068 4022 3757 3576 3669 3911 4039 4003 3987 3966 3994 4040 3936 3898 4052 3774 3083 2913 2714 2461 2268 2118 2280 2640 2856 3046 3263 3078 2833 2761 2764 3138
3781 3863 3970 3940 3901 3990 3986 3920 3922 4020 4034 4022 3974 3811 3483 3606 3908 3997 4096 3968 3832 3988 3868 4143 4061 4082 3085 2826 2618 2432 2309 2284 2282 2608 2807 3000 3123 3005 2822 2716 2691 2373
3886 3974 4026 3969 3936 3910 3849 3887 3799 3916 3923 3945 3917 3845 3682 3649 3499 3806 4047 4075 3942 3882 3590 3590 3830 3617 3270 2987 2684 2543 2468 2382 2461 2557 2683 2938 3000 2877 2668 2379 2700 2470
3754 3963 4078 3887 4143 4022 3873 3970 4040 3854 3793 3740 3853 3768 3739 3634 3473 3585 3912 4050 3901 3763 3517 3530 3552 3545 3145 3081 2808 2662 2581 2456 2598 2525 2429 2505 2761 2661 2597 2461 2542 2784
Wind_Speed
7 8 8 9 9 9 9 8 8 7 7 7 7 6 6 6 7 9 12 14 15 15 13 11 10 9 9 10 12 11 10 11 12 12 13 13 13 13 13 14 13 11
4 6 9 10 11 11 11 10 10 9 9 9 8 7 7 7 8 10 12 14 15 15 14 12 10 10 10 11 12 11 9 10 12 11 13 15 13 13 13 15 15 14
6 6 6 7 9 9 10 11 10 10 10 10 10 9 8 7 8 10 12 14 15 15 14 12 10 11 11 11 12 11 9 10 12 12 13 14 13 12 12 15 16 17
6 5 7 7 9 10 11 11 11 11 10 11 10 11 10 9 9 11 12 15 15 16 15 13 11 10 11 12 12 10 9 9 11 12 13 12 13 12 13 14 17 18
7 7 7 8 10 11 12 12 11 13 12 11 12 12 12 10 10 11 12 14 16 17 16 14 12 11 12 12 13 10 10 8 10 12 13 13 13 13 13 15 18 19
10 9 9 9 10 12 12 11 12 13 13 13 13 13 12 12 11 11 13 14 16 17 17 16 14 12 12 13 13 11 11 9 10 12 13 14 14 15 14 16 17 19
12 11 11 11 11 12 12 12 13 13 14 14 14 13 13 13 12 12 12 14 16 18 18 16 15 13 13 14 14 13 12 10 9 12 13 14 15 16 16 15 16 17
14 14 13 13 13 13 13 13 14 14 15 16 14 14 13 13 13 13 13 14 16 18 18 17 16 14 14 14 15 15 14 12 10 11 12 14 15 16 16 14 15 18
15 14 15 15 15 15 15 15 15 15 16 16 16 15 14 13 14 13 15 15 16 18 19 18 16 15 14 14 15 16 15 13 11 12 12 14 16 16 17 16 17 18
15 14 15 15 15 14 15 16 16 17 18 17 17 16 15 15 14 15 16 17 18 19 19 18 17 15 14 14 15 16 16 15 13 12 12 13 14 16 17 17 18 18
15 15 15 14 14 14 15 16 17 17 19 18 17 16 16 16 16 16 17 18 18 19 19 18 17 16 14 13 14 15 16 16 14 13 12 13 14 15 17 18 18 18
15 14 14 14 14 14 15 16 16 17 17 18 17 17 16 16 17 17 17 18 19 19 18 17 17 16 15 14 14 15 16 16 16 14 13 13 13 15 16 18 18 19
15 14 13 13 14 14 15 16 16 16 16 16 17 16 15 15 15 16 17 17 18 17 15 15 16 15 15 15 14 15 17 17 17 16 14 13 13 14 15 17 19 19
13 14 14 15 15 16 16 15 15 14 13 13 13 13 12 12 12 14 15 15 15 14 13 14 15 15 15 15 15 16 17 18 18 17 16 14 13 14 14 16 18 19
13 14 14 15 15 15 14 13 11 10 10 10 10 10 10 9 10 11 12 11 12 12 12 13 13 14 15 16 17 16 17 18 19 19 19 16 14 14 14 15 17 18
15 15 16 15 14 12 11 10 8 7 7 7 7 7 7 7 7 8 9 10 11 12 12 13 13 13 16 19 20 19 20 19 20 20 20 18 16 14 14 16 16 17
16 16 16 14 12 10 9 8 7 5 6 6 7 8 9 9 9 10 10 9 11 12 13 13 12 13 19 23 23 23 22 22 22 22 22 20 18 17 15 15 17 17
15 16 15 13 12 10 8 7 6 5 5 6 7 10 10 10 12 13 12 11 10 11 12 12 12 14 22 24 26 27 26 24 24 23 23 22 20 18 17 16 17 17
15 14 13 13 11 11 10 9 8 7 6 7 9 9 10 11 12 12 13 13 12 13 13 13 11 17 23 26 28 30 30 28 24 24 24 23 22 21 20 20 19 19
13 13 13 12 12 13 12 11 10 9 9 9 9 10 11 12 13 13 11 12 12 12 13 13 14 20 26 28 29 30 31 29 24 24 23 22 22 23 23 22 22 22
13 13 13 13 13 14 13 12 12 11 11 11 12 13 13 14 14 14 13 13 13 13 12 13 13 23 28 30 30 31 31 29 25 23 22 22 22 23 24 24 25 24
13 13 14 15 15 14 13 13 13 14 15 15 14 14 15 15 16 16 16 16 15 15 14 14 15 26 29 31 33 33 34 28 26 24 23 22 22 23 23 25 25 26
14 15 15 15 16 16 15 16 16 17 17 19 18 18 18 18 18 19 20 19 18 18 17 17 16 27 31 32 34 36 36 29 28 26 24 23 22 21 22 23 25 26
18 18 18 18 18 17 17 17 18 19 20 22 22 22 21 20 21 22 22 22 21 21 22 21 19 30 35 34 35 38 38 34 32 30 27 27 25 24 23 24 26 27
22 22 21 21 19 18 18 18 19 20 22 25 24 24 23 24 24 23 22 24 24 23 27 24 22 30 37 37 39 42 40 37 36 32 29 28 30 28 26 26 28 31
24 24 24 23 21 20 21 21 22 24 25 27 26 27 27 27 26 25 23 25 26 25 28 28 27 28 39 39 41 42 43 41 37 36 32 30 31 31 30 29 32 33
Wind_Direction
204 200 201 210 222 231 242 251 253 260 260 267 278 292 318 332 343 346 350 350 352 350 344 335 325 326 328 330 335 339 341 352 356 352 351 351 354 3 7 12 16 17
217 215 213 218 226 234 241 251 257 259 261 265 271 283 301 316 326 331 337 345 344 345 341 335 328 325 327 325 333 340 339 347 358 348 349 354 356 5 16 19 22 21
235 232 235 240 240 250 258 258 260 262 261 268 276 280 285 294 304 314 326 336 339 341 337 332 327 321 322 329 332 334 335 346 354 352 348 354 355 2 15 17 17 17
258 254 247 251 249 254 258 261 265 262 263 262 270 277 283 283 292 308 318 329 332 335 333 328 324 320 319 329 332 327 329 338 345 347 348 349 352 359 6 9 10 11
278 269 258 255 258 261 264 270 276 273 275 272 270 275 281 287 289 299 309 317 324 330 329 324 317 314 311 318 329 323 318 332 341 346 346 347 347 354 357 357 4 10
285 282 279 271 270 274 275 281 282 281 282 283 280 278 285 294 294 298 305 315 319 327 329 324 315 309 309 315 324 317 308 317 334 344 347 349 348 350 351 350 358 7
298 296 300 288 288 289 289 286 282 284 283 282 282 285 287 294 298 298 300 309 318 320 327 321 311 303 299 303 313 310 302 310 322 337 348 349 352 355 357 354 359 3
303 298 298 295 300 299 299 294 290 290 289 288 293 293 291 295 298 294 295 305 313 316 318 318 308 301 300 298 304 305 304 297 311 333 347 356 359 1 359 359 1 3
297 299 300 307 310 302 306 302 295 292 289 291 293 291 293 295 295 295 294 301 306 309 313 313 306 298 292 294 299 304 304 301 308 326 345 356 3 4 359 358 2 4
299 299 306 309 311 302 306 303 294 289 287 289 290 287 289 290 293 295 295 299 304 307 309 308 304 293 287 289 296 302 302 302 304 317 331 345 352 351 349 351 1 5
305 303 308 313 312 302 308 303 299 293 288 292 289 289 291 285 286 290 293 296 298 303 304 305 300 291 285 284 288 295 301 299 301 308 318 330 340 342 342 345 354 2
308 307 314 319 316 309 308 303 298 296 294 290 292 292 290 288 286 286 289 295 297 299 301 299 293 286 283 282 288 296 300 298 297 300 308 318 329 337 339 341 348 356
312 314 311 314 309 306 299 299 301 302 303 297 291 292 293 293 293 292 289 294 296 297 297 294 288 284 281 282 287 297 302 301 298 297 299 304 318 331 334 338 344 349
306 306 308 306 306 304 306 308 308 306 304 297 291 298 301 304 305 300 294 292 295 296 294 288 286 283 285 286 289 299 303 302 298 294 294 296 307 321 329 331 338 345
283 287 293 299 305 307 313 317 315 310 307 303 301 301 295 311 312 313 307 301 299 298 295 290 288 287 284 289 294 304 303 302 299 296 292 290 296 312 321 324 329 337
281 283 289 297 305 313 318 325 330 335 339 343 343 339 330 328 332 331 331 323 314 309 302 292 292 286 291 303 300 297 304 296 294 295 294 290 290 298 313 320 324 328
279 286 288 298 306 309 314 329 349 3 18 19 19 17 19 9 6 6 1 344 330 317 313 303 298 293 302 301 305 306 301 300 299 296 295 294 293 294 301 311 313 320
280 286 290 295 299 311 313 315 324 359 24 26 25 24 19 17 16 17 13 4 346 337 330 318 310 306 303 306 306 308 306 300 298 296 295 298 299 299 295 299 307 310
276 285 289 291 298 298 294 291 305 331 355 6 15 7 3 10 14 10 11 10 4 356 349 340 333 316 311 309 309 309 311 307 298 299 299 301 303 306 303 299 298 301
277 286 289 292 286 285 289 298 312 332 341 345 345 345 351 356 358 359 356 358 357 356 349 346 352 325 324 320 318 316 314 310 302 302 302 303 306 307 305 305 302 298
277 285 287 284 283 284 290 304 317 322 331 332 330 332 334 334 333 337 338 339 340 341 338 341 342 324 325 325 325 324 321 317 314 311 306 306 307 307 308 307 303 299
280 280 278 277 282 286 295 307 312 317 319 313 312 312 312 312 314 318 322 321 320 321 323 329 322 313 317 318 319 318 318 310 316 319 318 315 313 313 311 304 304 304
277 274 274 278 282 286 294 301 303 305 301 295 301 304 303 305 306 305 299 301 306 305 308 301 296 296 304 308 309 311 303 301 307 307 311 316 314 319 317 312 313 314
270 268 266 268 272 280 286 287 288 286 291 291 294 295 297 296 289 284 286 289 295 297 296 290 284 285 298 300 303 302 300 296 297 300 305 306 307 311 309 308 313 317
266 268 270 274 277 277 273 273 275 275 274 275 278 279 279 274 271 270 271 276 281 285 281 284 279 280 293 296 300 301 297 290 290 294 299 300 298 299 304 304 299 299
272 274 275 277 277 269 263 264 264 267 272 272 271 269 268 268 268 267 268 268 273 279 277 283 282 279 286 298 297 297 301 289 288 290 292 295 294 292 294 294 291 290